CZ-6A DEB, 54455

Orbit data source: Space-Track

CZ-6A DEB, 54455 is space debris in SSO originally from a launch on Fri, 11 Nov 2022 UTC launched from the Taiyaun Space Center, China (TSC). Debris objects in space refer to the collection of defunct objects orbiting the Earth. Examples of debris include non-operational satellites, rocket bodies, and fragments generated from explosions, collisions, or faulty payload assembly.

Loading next visibility...
Identifier
54455, 2022-151GF
Orbit
SSO
Country
Flag of CNCN / PRC
Related business
Manufacturer
SAST
Mission
Spacecraft
Bus & Motor
Unknown
Mass
Unknown
Launch date (UTC)
2022-11-11 (4 years ago)
Launch vehicle
Unknown
Launch site
Taiyaun Space Center, China (TSC)
Object type
Payload
Rocket body
Debris
Shape & HBR
Unknown shape, 0.1 m
Radar Cross Section
Medium (>0.1 m² and <1 m²)

Expand to show TLE details & history
Last TLE update: 2 days ago

TLE from 2 days ago
0 CZ-6A DEB
1 54455U 22151GF  26171.44334610  .00001406  00000-0  11057-2 0  9993
2 54455  99.0459 140.6946 0175604 117.5962 244.3151 13.86445819181802
Epoch: 2026-06-20T10:38Z
TLE epoch observation values (Epoch: 2026-06-20T10:38:25.103Z)
Latitude
0.00006°
Longitude
72.4321°
Altitude
1,001.503 km
Speed
7.322 km/s
True Right ascension
09h 22m 46s
True Declination
0° 00' 00"
Sunlit
Object was in daylight at epoch
Visualization orbit readout
Latitude
Unknown
Longitude
Unknown
Altitude
Unknown
Speed
Unknown
Apparent Right ascension
Unknown
Apparent Declination
Unknown
Sunlit
N/A
Visualization observer readout
Local Sidereal Time
21:41:00
Azimuth
Unknown
Elevation
Unknown
Doppler factor
Unknown
Orbital elements
Apogee altitude
1,066.811 km
Perigee altitude
809.851 km
Semi-major axis
7,316.468 km
Eccentricity
0.01756
Inclination
99.0459°
RAAN
140.6946°
Arg. of periapsis
117.5962°
True anomaly
242.51905°
Mean anomaly
244.3151°
Eccentric anomaly
243.41534°
Mean motion
3.46809 °/min
Orbital period
103.8 mins
BSTAR
0.0011057
Loading maneuver chart data...
Computing Atmospheric mass density...
Loading historical data...
Loading historical data...
Loading historical data...
Loading historical data...
Loading historical data...
Loading historical data...
Loading historical data...

Documentation

Showing up to 5 results
|